Location: Killam
(52.7910°N, 111.8608°W)
Time: 05:48:49
(UTC+00:00)

Gurwin Techsat 1B - Pass Details

Date: 21 March 2026
Orbit: 809 x 812 km, 99.0° (Epoch: 15 April)

Event Time Altitude Azimuth Distance (km) Brightness Sun altitude
Rises 11:46:47 0° 23° (NNE) 3,343 12.5 -15.6°
Reaches altitude 10° 11:49:28 10° 35° (NE) 2,406 11.9 -15.2°
Maximum altitude 11:54:01 28° 94° (E) 1,476 10.7 -14.6°
Drops below altitude 10° 11:58:32 10° 152° (SSE) 2,391 11.2 -14.0°
Sets 12:01:11 0° 164° (SSE) 3,317 11.8 -13.6°
